Tracking 30701 objects as of 14-Jun-2025
HD Live streaming from Space Station
objects crossing your sky now

COSMOS 2550

Track COSMOS 2550 now!
10-day predictions


NORAD ID: 48865
Int'l Code: 2021-056A
Perigee: 465.9 km
Apogee: 477.2 km
Inclination: 67.1 °
Period: 93.9 minutes
Semi major axis: 6842 km
RCS: Unknown
Launch date: June 25, 2021
Source: Commonwealth of Independent States (former USSR) (CIS)
Launch site: PLESETSK MISSILE AND SPACE COMPLEX (PKMTR)
Your satellite tracking list
Your tracking list is empty




NASA's NSSDC Master Catalog

Two Line Element Set (TLE):
1 48865U 21056A   25165.51421337  .00005980  00000-0  18744-3 0  9999
2 48865  67.1422 132.1854 0008311 270.0646  89.9556 15.33829118222343
Source of the keplerian elements: AFSPC